Sandspit, British Columbia

11:21 PM PDT on June 26, 2017 (GMT -0700)
Sandspit

Weather History for CYZP - October, 2013

Change the Weather History Date:

Wednesday, October 30, 2013

  Actual Average Record
Temperature  
Mean Temperature 52 °F -  
Max Temperature 59 °F 46 °F 59 °F (2013)
Min Temperature 45 °F 37 °F 30 °F (2012)
Degree Days  
Heating Degree Days 13    
Growing Degree Days 2 (Base 50)    
Moisture  
Dew Point 49 °F    
Average Humidity 90    
Maximum Humidity 100    
Minimum Humidity 73    
Precipitation  
Precipitation 0.02 in 0.25 in - ()
Sea Level Pressure  
Sea Level Pressure 29.72 in    
Wind  
Wind Speed 12 mph ()    
Max Wind Speed 29 mph    
Max Gust Speed 37 mph    
Visibility 8.5 miles    
Events Rain    
Averages and records for this station are not official NWS values.
T = Trace of Precipitation, MM = Missing Value Source: Averaged Metar Reports

Daily Weather History Graph

Daily Weather History Graph

Search for Another Location

Airport or City:

Trip Planner

Search our weather history database for the weather conditions in past years. The results will help you decide how hot, cold, wet, or windy it might be!

Date:

Astronomy

Oct. 30, 2013 Rise Set
Actual Time 8:42 AM PDT 6:18 PM PDT
Civil Twilight 8:06 AM PDT 6:54 PM PDT
Nautical Twilight 7:25 AM PDT 7:35 PM PDT
Astronomical Twilight 6:44 AM PDT 8:15 PM PDT
Moon 4:07 AM PDT (10/30) 4:34 PM PDT (10/30)
Length of Visible Light 10h 48m
Length of Day
9h 35m
Waning Crescent, 16% of the Moon is Illuminated
Oct 30
Waning Crescent
Nov 3
New
Nov 9
First Quarter
Nov 17
Full
Nov 25
Last Quarter

Hourly Weather History & Observations

Time (PDT) Temp. Windchill Dew Point Humidity Pressure Visibility Wind Dir Wind Speed Gust Speed Precip Events Conditions
12:00 AM 48.2 °F - 44.6 °F 87% 29.85 in 9.0 mi South 8.1 mph - N/A   Overcast
1:00 AM 46.4 °F 42.9 °F 44.6 °F 93% 29.84 in 9.0 mi SSE 6.9 mph - N/A   Overcast
2:00 AM 47 °F - 43 °F 82% 29.83 in - SE 3.5 mph - -  
2:00 AM 46.4 °F 42.9 °F 44.6 °F 93% 29.83 in 9.0 mi SSE 6.9 mph - N/A   Mostly Cloudy
3:00 AM 48.2 °F - 44.6 °F 87% 29.81 in 9.0 mi SSE 5.8 mph - N/A   Overcast
3:02 AM 46.4 °F 44.3 °F 44.6 °F 93% 29.81 in 9.0 mi South 4.6 mph - N/A Rain Light Rain
3:22 AM 48.2 °F - 46.4 °F 93% 29.81 in 9.0 mi SSE 8.1 mph - N/A   Overcast
4:00 AM 48.2 °F - 46.4 °F 93% 29.80 in 9.0 mi SSE 8.1 mph - N/A   Overcast
5:00 AM 49 °F - 46 °F 87% 29.77 in - SSE 3.5 mph - -  
5:00 AM 48.2 °F - 46.4 °F 93% 29.78 in 9.0 mi SSE 6.9 mph - N/A   Overcast
6:00 AM 48.2 °F - 46.4 °F 93% 29.76 in 9.0 mi SSE 5.8 mph - N/A   Mostly Cloudy
6:49 AM 51.8 °F - 50.0 °F 94% 29.73 in 9.0 mi SE 17.3 mph - N/A   Overcast
6:59 AM 51.8 °F - 50.0 °F 94% 29.72 in 9.0 mi SE 21.9 mph - N/A   Overcast
7:00 AM 51.8 °F - 50.0 °F 94% 29.72 in 8.0 mi SE 21.9 mph - N/A   Overcast
7:47 AM 51.8 °F - 51.8 °F 100% 29.70 in 9.0 mi SE 24.2 mph - N/A Rain Light Rain
7:59 AM 51.8 °F - 50.0 °F 94% 29.70 in 5.0 mi SE 24.2 mph 32.2 mph N/A Rain Light Rain
8:00 AM 51 °F - 50 °F 96% 29.69 in - SE 19.6 mph - -  
8:00 AM 51.8 °F - 50.0 °F 94% 29.70 in 5.0 mi SE 24.2 mph 32.2 mph N/A Rain Light Rain
8:09 AM 51.8 °F - 50.0 °F 94% 29.69 in 4.0 mi SE 25.3 mph 33.4 mph N/A Rain Light Rain
8:17 AM 51.8 °F - 50.0 °F 94% 29.69 in 6.0 mi SE 26.5 mph 33.4 mph N/A Rain Light Rain
9:00 AM 51.8 °F - 50.0 °F 94% 29.67 in 9.0 mi SE 27.6 mph 34.5 mph N/A Rain Light Rain
9:09 AM 51.8 °F - 50.0 °F 94% 29.67 in 5.0 mi SE 28.8 mph 34.5 mph N/A Rain Light Rain
9:21 AM 51.8 °F - 50.0 °F 94% 29.67 in 6.0 mi SE 27.6 mph 36.8 mph N/A Rain Light Rain
9:33 AM 51.8 °F - 50.0 °F 94% 29.67 in 9.0 mi SE 24.2 mph 33.4 mph N/A   Overcast
10:00 AM 51.8 °F - 50.0 °F 94% 29.67 in 9.0 mi SE 19.6 mph 27.6 mph N/A   Overcast
10:56 AM 51.8 °F - 50.0 °F 94% 29.66 in 9.0 mi SSE 16.1 mph 23.0 mph N/A Rain Light Rain
11:00 AM 52 °F - 51 °F 93% 29.65 in - SSE 12.7 mph - -  
11:00 AM 51.8 °F - 50.0 °F 94% 29.66 in 9.0 mi SSE 15.0 mph 23.0 mph N/A Rain Light Rain
11:11 AM 51.8 °F - 50.0 °F 94% 29.66 in 9.0 mi SSE 11.5 mph 18.4 mph N/A   Overcast
11:41 AM 53.6 °F - 51.8 °F 94% 29.65 in 9.0 mi SSE 13.8 mph - N/A   Overcast
12:00 PM 53.6 °F - 51.8 °F 94% 29.65 in 9.0 mi SSE 12.7 mph - N/A   Overcast
12:15 PM 53.6 °F - 51.8 °F 94% 29.65 in 9.0 mi SSE 11.5 mph - N/A   Overcast
12:55 PM 53.6 °F - 51.8 °F 94% 29.65 in 9.0 mi SSE 6.9 mph - N/A Rain Light Rain
1:00 PM 53.6 °F - 51.8 °F 94% 29.65 in 9.0 mi SSE 8.1 mph - N/A Rain Light Rain
1:13 PM 53.6 °F - 51.8 °F 94% 29.65 in 9.0 mi SSE 6.9 mph - N/A Rain Light Rain
1:14 PM 53.6 °F - 51.8 °F 94% 29.66 in 9.0 mi SSE 6.9 mph - N/A   Overcast
2:00 PM 56 °F - 53 °F 86% 29.64 in - SE 5.8 mph - -  
2:00 PM 57.2 °F - 51.8 °F 82% 29.65 in 9.0 mi SE 6.9 mph - N/A   Mostly Cloudy
3:00 PM 57.2 °F - 51.8 °F 82% 29.66 in 9.0 mi WSW 10.4 mph 17.3 mph N/A   Mostly Cloudy
4:00 PM 55.4 °F - 51.8 °F 88% 29.67 in 9.0 mi WSW 18.4 mph 25.3 mph N/A   Partly Cloudy
4:19 PM 55.4 °F - 51.8 °F 88% 29.68 in 9.0 mi WSW 24.2 mph - N/A   Mostly Cloudy
4:27 PM 55.4 °F - 50.0 °F 82% 29.68 in 9.0 mi WSW 26.5 mph - N/A   Mostly Cloudy
5:00 PM 55 °F - 50 °F 76% 29.68 in - SW 8.1 mph - -  
5:00 PM 53.6 °F - 50.0 °F 88% 29.68 in 9.0 mi WSW 23.0 mph 31.1 mph N/A   Clear
6:00 PM 53.6 °F - 48.2 °F 82% 29.70 in 9.0 mi SW 21.9 mph 28.8 mph N/A   Clear
7:00 PM 51.8 °F - 46.4 °F 82% 29.74 in 9.0 mi WSW 20.7 mph 26.5 mph N/A   Clear
8:00 PM 52 °F - 47 °F 76% 29.76 in - WSW 4.6 mph - -  
8:00 PM 51.8 °F - 46.4 °F 82% 29.76 in 9.0 mi WSW 24.2 mph 31.1 mph N/A   Mostly Cloudy
9:00 PM 50.0 °F - 44.6 °F 82% 29.79 in 9.0 mi SW 11.5 mph - N/A   Partly Cloudy
10:00 PM 50.0 °F - 46.4 °F 87% 29.81 in 9.0 mi WSW 16.1 mph - N/A   Partly Cloudy
11:00 PM 50 °F - 44 °F 73% 29.81 in - SSW 2.3 mph - -  
11:00 PM 50.0 °F - 44.6 °F 82% 29.82 in 9.0 mi WSW 10.4 mph - N/A   Clear